Location: Newark
(39.1833°N, 3.3000°W)
Time: 08:37:54
(UTC+00:00)

Tiangong 2 - Pass Details

Date: 30 March 2019
Orbit: 378 x 390 km, 42.8° (Epoch: 25 April)

Event Time Altitude Azimuth Distance (km) Brightness Sun altitude
Rises 19:42:33 0° 228° (SW) 2,233 5.4 -13.7°
Reaches altitude 10° 19:44:41 10° 219° (SW) 1,383 4.2 -14.1°
Maximum altitude 19:47:35 35° 151° (SSE) 622 1.7 -14.6°
Enters shadow 19:48:03 33° 129° (SE) 655 1.7 -14.7°
